Погода в Багратионовске

Россия / Калининградская область     54°23′11″N   20°38′22″E
темп.,
°C
ветер,
м/с
пор.,
м/с
влажн.,
%
обл.,
%
осадки,
мм/ч
давл.,
гПа
погр.,
м
23 апреля, пт
пт2323:00+2з51197100 0.6 1013832
02:00+2зсз6119799 0.8 1013934
05:00+2зсз51288100 0.2 1014988
08:00+5зсз61074100 0.9 10141464
11:00+6зсз8116137 0.7 10161708
14:00+6зсз8114910 1.1 10172016
17:00+6сз713525 0.1 10182071
20:00+2сз49672 0.2 1019329
24 апреля, сб
сб2423:000зсз398056 0.0 1020224
02:000з35839 0.0 102091
05:000зюз358045 0.0 101972
08:00+5з596024 0.0 1019634
11:00+8зсз7114490 0.2 10192502
14:00+7зсз7114493 0.2 10192233
17:00+5сз79485 0.0 10191648
20:00+1сз5106619 0.0 1020467
25 апреля, вс
вс2523:00−1зсз38815 0.0 1020197
02:00−1зсз388191 0.0 1020165
05:000з387398 0.0 1019223
08:00+4сз4863100 0.1 10191213
11:00+6сз5652100 0.8 10191788
14:00+6сз785297 1.6 10191844
17:00+5сз685988 0.6 10191526
20:00+1сз497599 0.8 1019348
26 апреля, пн
пн2623:00+1зсз497994 0.0 1019460
02:00−1з388917 0.1 1018160
05:00−1зюз3881100 0.0 1017162
08:00+4з5864100 0.1 10161175
11:00+7зсз7948100 0.2 10162038
14:00+6зсз81047100 0.3 10152083
17:00+5зсз71158100 0.1 10151534
20:00+2зсз61297100 0.1 1014781
27 апреля, вт
вт2723:00+3зсз61097100 0.1 1014722
02:00+4сз5992100 0.2 1014726
05:00+3сз4992100 0.1 1014639
08:00+4сз4788100 0.3 1015704
11:00+6сз467099 0.3 10151215
14:00+7сз566180 0.5 10141300
17:00+8ссз456070 0.1 10141244
20:00+2ссв33885 0.1 101551